{"data":{"norad_id":63179,"intl_designator":"2025-047B","name":"PUNCH-WFI 1 (SMEX 15B)","alt_names":[],"object_type":"PAYLOAD","status":"ACTIVE","operator":null,"country":"US","launch_date":"2025-03-12","launch_site_code":"AFWTR","launch_vehicle":null,"mission":null,"orbit_class":"UNKNOWN","rcs_meters":null,"size_class":null,"mass_kg":null,"dimensions":null,"purposes":[],"wikipedia_slug":null,"has_3d_model":false,"image_url":null,"decayed_at":null,"tle_current":{"epoch":"2026-05-25T02:47:02.889024Z","epoch_age_seconds":58421,"freshness":"FRESH","line1":"1 63179U 25047B   26145.11600566  .00000468  00000+0  78222-4 0  9999","line2":"2 63179  97.9585 330.8565 0007668 248.9091 111.1298 14.74319122 64660","mean_motion":14.74319122,"eccentricity":0.0007668,"inclination_deg":97.9585,"raan_deg":330.8565,"arg_perigee_deg":248.9091,"mean_anomaly_deg":111.1298,"bstar":7.8222e-5,"rev_number":6466,"period_min":97.672205325978,"perigee_km":641.92634503967,"apogee_km":652.70057586582,"semimajor_km":7025.4504604527,"source":"CELESTRAK","updated_at":"2026-05-25T13:38:03.543506Z"}}}